This demonstration page uses our WeatherBlox Daily Observations layout. Learn more.

39.29038, -76.61219

Hourly Observations for July 5, 2015

Temp ( °F °C ) Dew Point ( °F °C ) Humidity (%) Winds ( mph kmh ) Pressure ( in mb ) Visibility ( mi km ) Precip ( " mm )
12:54 am 00:54 Partly Cloudy 72 22 66 19 83 83 undefined N/A 30.06 1018 N/A 0 0
1:54 am 01:54 undefined 70 21 66 19 88 88 undefined N/A 30.06 1018 N/A 0 0
2:54 am 02:54 Mostly Cloudy 70 21 64 18 83 83 undefined N/A 30.06 1018 N/A 0 0
3:54 am 03:54 Mostly Clear 70 21 64 18 83 83 undefined N/A 30.06 1018 N/A 0 0
4:54 am 04:54 Cloudy 70 21 64 18 83 83 undefined N/A 30.06 1018 N/A 0 0
5:54 am 05:54 undefined 70 21 64 18 83 83 undefined N/A 30.09 1019 N/A 0 0
6:54 am 06:54 Mostly Cloudy 70 21 64 18 83 83 undefined N/A 30.12 1020 N/A 0 0
7:54 am 07:54 undefined 72 22 64 18 78 78 undefined N/A 30.15 1021 N/A 0 0
8:54 am 08:54 undefined 73 23 64 18 74 74 undefined N/A 30.18 1022 N/A 0 0
9:54 am 09:54 Mostly Sunny 73 23 64 18 74 74 undefined N/A 30.18 1022 N/A 0 0
10:54 am 10:54 undefined 75 24 64 18 69 69 undefined N/A 30.18 1022 N/A 0 0
11:54 am 11:54 Partly Cloudy 79 26 64 18 61 61 undefined N/A 30.15 1021 N/A 0 0
12:54 pm 12:54 undefined 79 26 66 19 65 65 undefined N/A 30.15 1021 N/A 0 0
1:54 pm 13:54 Cloudy 79 26 64 18 61 61 undefined N/A 30.15 1021 N/A 0 0
2:54 pm 14:54 undefined 81 27 64 18 58 58 undefined N/A 30.12 1020 N/A 0 0
3:54 pm 15:54 Mostly Cloudy 82 28 66 19 58 58 undefined N/A 30.12 1020 N/A 0 0
4:54 pm 16:54 Sunny 82 28 66 19 58 58 undefined N/A 30.12 1020 N/A 0 0
5:54 pm 17:54 undefined 81 27 66 19 62 62 undefined N/A 30.12 1020 N/A 0 0
6:54 pm 18:54 Mostly Sunny 81 27 64 18 58 58 undefined N/A 30.12 1020 N/A 0 0
7:54 pm 19:54 Cloudy 81 27 64 18 58 58 undefined N/A 30.12 1020 N/A 0.02 0.508
8:54 pm 20:54 Mostly Cloudy 79 26 66 19 65 65 undefined N/A 30.12 1020 N/A 0.01 0.254
9:54 pm 21:54 undefined 79 26 68 20 70 70 undefined N/A 30.15 1021 N/A 0 0
10:54 pm 22:54 Mostly Clear 79 26 70 21 74 74 undefined N/A 30.12 1020 N/A 0.001 0.001
11:54 pm 23:54 undefined 77 25 72 22 83 83 undefined N/A 30.15 1021 N/A 0 0

Powered by AerisWeather